Location: Unspecified
(41.1637°N, 24.2901°E)
Time: 01:34:02
(UTC+01:00)

ISS - Pass Details

Date: 11 January 2026
Orbit: 413 x 424 km, 51.6° (Epoch: 16 January)

Event Time Altitude Azimuth Distance (km) Brightness Sun altitude
Rises 16:58:39 0° 188° (S) 2,332 0.5 -8.4°
Reaches altitude 10° 17:01:33 10° 160° (SSE) 1,477 -1.0 -8.9°
Maximum altitude 17:03:13 13° 130° (SE) 1,298 -1.5 -9.2°
Enters shadow 17:04:52 10° 100° (E) 1,481 -1.5 -9.5°
